Temp
16 19 19 20 21 22 23 24 24 24 25 25 25 26 26 27 28 29 28 33 34 34 33 33 32 33 31 30 34 33 28 29 30 31 31 32 32 32 33 30 31 31 29 28 27
17 18 19 20 21 22 23 23 24 24 25 25 26 26 26 26 26 25 35 35 34 33 33 33 32 32 30 32 34 30 27 28 31 33 31 32 33 33 31 30 29 29 29 27 25
17 18 19 20 21 22 22 23 23 24 25 25 26 26 26 26 24 29 36 35 35 34 33 33 33 32 33 34 35 27 25 28 29 30 33 33 33 34 30 27 29 28 28 28 26
18 18 19 19 20 21 22 22 23 24 24 25 25 26 26 26 29 34 35 36 34 34 33 33 32 32 32 31 32 28 27 27 28 30 31 31 33 32 31 29 30 30 29 29 27
18 18 19 19 20 21 22 22 23 23 24 24 25 25 26 25 26 34 34 34 33 34 32 32 32 32 32 30 31 27 26 25 28 32 31 31 32 32 30 30 30 30 29 28 28
17 18 18 19 20 21 22 22 23 23 23 24 24 23 22 24 32 33 33 33 33 33 33 33 32 32 33 31 29 30 28 27 30 30 30 31 31 32 30 30 30 30 28 28 28
16 17 18 19 20 21 22 22 22 23 23 24 24 23 21 24 33 34 34 34 34 34 33 35 35 34 31 29 30 29 28 28 29 29 30 30 30 30 30 30 30 29 29 28 28
16 17 18 20 21 21 22 22 23 23 24 24 23 22 21 31 32 32 34 34 35 36 35 36 36 35 32 31 32 30 27 27 29 30 30 29 29 28 30 30 29 29 30 30 29
15 16 18 19 21 21 22 23 23 24 23 23 22 22 23 31 31 35 35 34 35 36 37 36 36 33 33 29 29 28 28 29 29 31 30 29 29 29 28 30 29 29 29 30 29
15 17 18 19 20 21 22 24 24 24 23 22 22 23 24 30 33 36 36 35 34 33 33 34 31 30 30 27 28 28 28 29 29 30 30 28 29 28 28 27 27 29 30 30 29
16 17 18 18 20 20 22 23 20 22 22 23 24 24 28 32 34 34 35 34 33 32 31 31 30 29 30 30 31 28 30 31 31 31 30 28 28 28 27 27 28 27 28 29 29
16 16 17 19 20 21 20 17 23 27 23 24 26 26 29 30 29 31 35 32 31 30 31 29 29 31 32 32 31 30 31 30 32 31 29 26 28 27 26 26 29 28 27 29 30
16 16 17 19 22 21 19 22 27 26 23 25 25 26 27 29 29 30 33 32 32 31 31 29 31 34 34 31 31 30 30 30 31 31 30 27 26 26 27 27 28 28 27 29 30
16 16 17 19 21 19 20 26 26 25 20 24 27 29 30 29 30 32 33 33 33 31 31 30 32 34 33 33 31 29 32 35 31 29 27 28 26 26 27 26 27 27 27 29 26
16 16 16 17 17 17 27 26 27 25 23 30 29 33 29 29 31 33 34 32 31 32 31 31 33 34 34 35 32 31 34 33 33 29 27 26 25 26 26 26 27 28 27 25 25
16 16 16 16 15 24 24 26 27 22 24 30 31 30 29 29 30 32 34 33 32 31 31 31 34 34 34 35 34 34 33 32 30 27 27 26 26 27 26 28 28 28 28 27 25
16 18 16 13 19 24 24 22 21 21 28 32 31 29 29 29 30 31 31 31 29 30 29 30 32 34 34 33 34 32 27 27 28 26 27 25 26 26 27 29 29 28 28 26 24
18 20 20 21 23 21 23 21 23 26 27 30 32 29 29 29 29 31 31 28 30 29 27 28 29 33 35 33 31 30 30 26 29 27 27 26 28 27 27 28 28 27 28 26 24
19 19 18 24 24 21 19 20 22 25 29 28 28 29 29 30 31 29 28 28 29 28 28 28 29 32 34 35 33 33 30 29 25 26 26 26 26 28 26 29 27 27 26 26 25
16 16 19 24 24 21 19 19 22 27 29 28 27 31 30 29 29 28 28 29 30 30 28 29 29 31 34 35 33 32 30 29 24 27 27 25 27 27 26 30 27 25 26 25 26
15 16 23 25 24 18 19 19 25 27 29 28 28 28 30 31 28 27 29 32 32 31 28 27 28 33 34 32 31 31 29 24 24 23 25 25 26 24 24 25 28 25 25 24 23
13 19 23 25 20 17 19 24 26 27 28 28 28 31 31 31 30 28 29 32 33 31 30 28 25 27 29 31 34 34 30 26 26 27 23 24 25 28 26 25 24 25 25 24 23
12 15 25 25 21 19 20 25 26 27 28 28 30 32 31 31 31 32 33 34 33 30 29 29 27 27 29 29 32 33 30 30 27 24 24 27 26 24 24 23 23 26 24 25 24
11 18 17 18 19 23 21 22 25 28 28 29 30 31 29 29 29 30 31 34 35 32 28 28 24 27 28 29 31 33 34 33 29 27 27 26 26 23 24 23 24 25 24 25 25
12 17 17 17 19 20 20 21 25 26 29 29 30 32 30 30 28 30 31 31 33 31 31 30 29 28 28 29 31 32 33 33 31 29 31 29 29 27 26 24 23 25 25 25 24
14 17 15 16 17 20 19 22 24 27 27 28 30 31 31 29 29 29 30 30 32 31 30 27 29 29 31 32 32 32 32 33 33 34 32 28 28 27 25 23 23 25 26 25 24
16 17 16 18 19 19 18 21 23 25 25 29 31 29 30 30 30 28 29 27 31 32 30 28 27 25 28 30 30 30 31 33 33 34 29 28 29 26 25 25 26 25 27 26 25
Height
793 790 788 786 784 782 780 779 777 775 773 771 769 767 765 760 756 752 748 742 740 740 742 743 743 743 743 742 741 739 781 786 780 777 770 753 758 752 751 763 760 760 766 773 781
793 791 788 786 784 781 779 777 775 773 771 770 768 766 764 759 754 747 737 737 737 739 741 739 737 740 745 740 736 759 789 790 769 756 762 754 754 755 763 770 771 767 770 778 782
793 791 788 785 783 781 779 777 774 772 770 769 767 764 761 757 754 739 734 734 736 738 738 737 739 738 744 735 736 772 813 786 767 764 750 751 755 749 767 781 768 773 772 779 785
792 790 788 785 783 780 778 776 774 772 770 768 766 763 760 757 770 734 733 734 735 737 736 736 739 746 753 756 743 782 785 772 772 765 759 764 749 756 759 765 761 763 769 777 784
792 789 787 784 782 779 777 774 773 771 769 768 766 763 761 762 750 733 734 734 735 735 734 738 743 746 758 759 754 779 788 778 766 755 759 756 757 758 762 760 765 768 773 778 783
792 789 786 783 780 777 775 772 770 768 767 766 765 764 764 772 735 733 733 734 735 734 733 735 737 738 747 754 764 764 763 774 767 761 762 766 765 760 767 763 769 770 776 779 782
791 788 785 781 778 776 773 771 768 767 765 764 763 763 763 749 732 732 732 731 733 734 733 728 730 740 744 765 758 764 781 774 767 768 772 762 775 774 764 766 772 774 776 777 778
791 787 784 780 777 773 770 768 765 763 762 762 762 763 759 732 732 730 730 728 727 729 729 725 724 731 741 746 755 770 781 797 771 765 766 767 795 777 768 768 774 773 773 774 775
790 786 782 778 774 770 767 764 762 761 761 761 762 762 757 729 728 724 726 727 726 725 724 724 724 740 745 767 781 782 800 790 782 760 767 775 790 775 771 770 770 770 771 770 773
789 784 780 776 772 767 764 760 759 760 760 760 761 767 741 731 723 722 723 725 727 726 729 729 738 756 762 780 809 799 797 788 789 771 768 783 783 776 770 773 776 771 768 769 771
787 783 778 774 770 765 761 759 762 763 759 757 751 747 733 727 724 720 719 723 726 735 756 740 764 778 767 758 760 775 777 781 770 764 773 784 784 776 769 770 769 771 773 768 767
786 782 776 772 767 764 762 762 754 754 762 740 740 738 729 733 739 719 718 733 738 758 746 761 776 750 744 751 756 767 778 781 768 765 777 790 786 774 770 767 754 761 767 768 764
785 780 774 768 763 761 760 755 752 753 762 738 728 731 728 727 736 727 719 727 739 751 752 770 753 736 744 757 766 773 781 775 774 771 774 788 800 787 763 762 759 756 758 759 757
783 779 773 765 764 761 756 751 750 749 784 753 733 720 720 722 735 711 711 723 735 752 750 756 737 742 748 755 760 788 757 741 768 787 813 789 826 793 771 772 767 760 761 754 760
781 776 772 769 765 761 752 750 747 751 811 727 726 703 709 727 721 715 708 721 743 745 748 756 745 744 749 747 748 768 746 752 757 787 799 809 823 796 773 783 767 761 761 766 761
778 774 769 767 762 753 751 747 747 791 802 733 714 722 728 726 724 715 716 715 720 740 739 744 725 732 734 728 733 735 749 759 770 790 820 807 814 797 790 774 766 761 764 766 760
772 768 764 763 756 751 751 750 792 807 739 733 729 724 730 736 733 730 735 741 757 769 771 750 744 728 723 742 734 747 779 812 817 822 824 801 812 799 776 759 755 755 755 765 761
765 759 754 750 751 755 754 773 797 762 752 722 721 726 741 733 736 733 740 757 739 747 772 777 782 737 720 734 751 756 761 811 821 829 819 796 803 789 765 752 743 741 738 751 760
759 753 749 742 746 753 762 795 783 757 733 740 727 740 741 730 730 738 746 751 740 739 769 776 770 724 721 719 726 745 767 756 800 805 813 806 796 770 762 749 746 747 745 753 752
758 752 745 742 744 752 773 784 765 735 731 736 758 732 747 742 744 743 746 728 730 723 724 747 775 732 718 713 718 729 736 778 800 820 826 816 801 794 780 756 756 750 749 747 745
759 757 740 742 747 761 783 777 748 729 730 739 746 747 735 733 737 747 734 716 710 716 722 740 756 738 724 736 743 745 755 773 783 803 818 828 806 772 769 756 740 744 749 750 750
763 764 742 741 765 770 774 754 737 732 723 730 725 718 721 723 727 735 731 712 690 702 731 726 757 769 753 718 707 716 738 754 783 794 802 800 797 744 748 742 743 744 755 750 758
772 763 746 743 771 772 760 748 739 735 727 727 725 711 709 719 731 715 710 686 686 703 720 718 754 777 759 738 714 723 724 726 744 766 791 793 787 748 747 747 746 751 755 751 752
774 768 754 748 749 756 763 757 747 723 722 716 716 707 718 723 717 723 717 687 677 686 694 702 749 756 772 755 729 730 716 716 737 768 769 770 764 758 746 747 750 747 752 752 752
774 769 767 773 762 761 762 759 748 740 719 712 712 706 716 729 729 723 710 702 686 686 689 703 737 738 736 731 724 723 720 714 730 732 744 741 742 736 732 740 749 746 748 751 752
774 769 769 769 763 759 764 755 749 733 730 723 717 704 706 722 722 727 713 711 708 695 706 708 733 727 728 720 718 725 715 707 708 707 716 730 736 717 727 736 746 745 743 746 750
768 764 765 764 761 762 765 755 744 735 718 712 706 708 709 707 698 697 693 699 696 701 711 719 730 746 750 728 730 743 720 710 703 696 714 739 718 715 733 734 730 738 738 743 746
Wind_Speed
12 12 13 13 13 13 13 14 14 15 16 17 18 19 21 25 27 23 7 13 8 9 11 11 11 12 16 5 6 4 4 6 1 4 4 4 3 6 7 16 10 4 15 27 34
13 13 13 13 12 13 14 15 15 16 17 17 18 19 20 24 24 14 21 19 17 15 12 9 8 6 3 5 4 6 5 8 12 2 7 6 6 10 11 10 4 10 17 31 37
13 13 14 13 13 13 13 14 15 16 17 18 18 20 20 22 5 8 9 17 19 17 12 10 8 4 2 3 4 5 4 11 13 18 3 8 6 6 14 4 18 20 23 23 29
13 14 15 14 14 13 13 13 14 15 16 17 17 19 19 7 1 3 3 8 9 10 9 5 3 4 3 7 5 10 9 28 19 9 7 10 4 5 8 6 16 20 23 17 19
15 15 15 16 16 14 14 14 14 14 15 15 15 15 8 4 9 6 7 7 6 7 7 0 5 1 2 9 17 16 9 23 23 5 12 13 1 4 12 17 15 14 20 14 13
16 17 17 17 16 15 15 15 15 15 13 13 12 11 2 5 7 10 12 13 10 8 6 5 9 5 1 5 5 9 19 20 10 6 6 7 2 5 14 18 16 14 9 8 10
19 18 18 17 17 16 16 17 17 16 12 10 9 6 2 16 8 10 16 19 19 23 4 22 11 6 5 8 11 12 6 2 5 4 3 1 3 6 16 18 17 15 12 8 9
22 21 19 18 18 18 17 18 18 14 10 7 6 0 7 13 18 22 16 21 16 16 21 25 22 3 6 10 2 4 4 2 3 6 4 7 3 10 4 19 16 16 15 15 13
25 23 22 21 20 20 20 18 16 8 6 4 1 2 10 13 8 12 13 9 17 17 18 20 9 6 1 7 2 3 2 2 0 3 1 4 1 2 2 8 17 16 15 15 13
26 25 24 24 22 23 21 18 8 5 1 1 3 3 7 5 6 11 15 15 7 5 8 2 4 4 2 4 4 5 2 2 3 3 5 2 3 6 5 8 2 8 15 15 14
27 27 25 27 22 23 22 5 4 3 2 9 7 6 7 4 12 9 19 8 0 4 4 7 3 6 8 10 3 8 4 2 2 6 2 2 3 5 6 5 5 2 8 15 15
27 29 28 29 24 20 14 1 6 4 7 12 14 11 24 6 7 16 7 5 5 6 2 6 3 11 5 8 15 7 6 6 5 12 5 2 4 9 10 11 8 7 6 14 14
28 30 31 31 22 9 5 12 14 17 2 8 10 8 7 9 8 15 8 6 3 2 7 6 10 2 4 6 9 2 6 6 4 7 6 6 7 8 7 5 6 3 5 11 17
29 32 31 37 5 8 8 9 26 4 4 7 5 7 6 8 6 11 9 6 3 8 5 7 7 7 8 7 9 4 15 11 13 6 2 4 4 6 6 15 11 10 8 10 8
30 32 32 28 16 5 5 23 20 4 3 4 3 6 6 9 2 5 8 4 8 7 6 9 6 4 3 6 13 8 14 13 3 6 6 3 3 7 3 9 17 11 5 2 4
32 31 37 11 12 14 16 20 4 5 6 4 7 7 7 4 4 6 3 4 4 6 6 8 1 4 8 5 8 11 8 3 5 5 3 7 8 4 2 5 3 3 5 5 10
35 35 31 16 6 4 19 4 4 3 6 2 4 6 6 7 5 4 4 3 6 3 4 7 6 5 6 4 2 4 5 0 4 4 5 3 3 6 5 2 5 4 4 7 10
37 30 15 21 8 15 5 5 3 5 7 6 0 4 8 7 6 5 4 6 3 4 2 4 8 5 4 8 10 7 7 6 4 3 4 3 4 4 5 11 15 16 3 14 5
31 16 10 11 13 8 5 3 7 6 3 9 8 6 4 5 6 6 8 7 9 9 9 4 7 6 5 4 9 4 3 5 7 3 3 2 2 6 9 5 10 10 9 10 11
23 10 7 1 15 9 4 6 6 4 7 6 3 3 3 4 4 7 7 7 9 12 8 7 4 6 12 3 2 10 8 4 3 4 3 4 2 4 6 5 9 6 2 3 7
7 4 6 14 15 5 3 7 7 7 8 4 10 10 4 3 8 6 8 6 11 8 11 6 5 16 3 6 7 1 1 6 6 5 6 5 5 7 11 8 10 11 5 4 7
6 2 12 27 3 1 3 5 5 9 17 10 6 5 2 3 4 9 11 11 12 10 10 11 6 7 12 7 6 7 10 7 5 6 1 3 6 9 17 17 7 3 4 3 7
3 3 12 4 2 3 6 7 6 13 14 5 6 5 3 3 3 3 2 15 8 10 11 7 2 4 12 8 4 1 4 3 5 4 8 7 5 6 5 7 6 1 6 8 14
2 3 4 3 1 3 5 7 7 7 13 9 10 2 6 6 1 4 5 5 7 9 11 10 5 7 9 9 1 6 3 4 6 4 6 7 7 6 14 11 3 6 8 13 16
2 2 1 3 3 3 2 5 12 11 4 8 6 2 3 3 7 4 5 8 6 1 5 7 5 7 7 8 5 7 7 8 6 6 7 7 13 18 21 15 7 6 6 10 15
0 2 2 3 3 2 4 4 10 17 6 15 6 9 5 4 8 7 2 1 2 6 7 5 5 6 4 3 5 5 10 8 4 4 3 10 3 8 8 7 9 9 7 12 12
5 6 3 4 2 2 3 5 11 8 7 7 7 5 6 6 7 8 5 5 4 4 1 1 4 3 6 2 5 5 9 7 5 3 10 8 9 10 7 11 8 10 10 12 12
Wind_Direction
351 348 344 340 335 327 322 317 318 320 323 324 327 328 332 329 324 324 259 243 264 288 288 297 275 268 247 250 188 126 44 71 310 163 174 169 121 138 140 135 151 191 158 156 147
349 346 345 340 334 329 324 320 319 317 317 321 320 324 332 329 325 287 249 256 261 274 293 300 301 341 267 226 194 64 9 9 344 222 160 188 136 134 119 126 95 103 135 128 135
351 347 343 340 337 331 325 322 318 314 312 314 317 324 332 328 328 252 231 244 248 267 276 282 301 297 327 267 162 63 357 340 345 341 122 155 122 122 118 119 148 139 152 143 144
350 348 345 341 336 329 324 321 318 312 309 311 316 322 331 344 316 297 252 252 241 250 269 311 6 346 348 1 81 100 34 8 322 311 36 327 109 109 130 161 156 145 160 150 157
352 348 343 341 334 328 324 320 317 313 308 306 311 323 342 350 251 240 288 248 241 243 240 276 301 358 271 114 80 111 103 175 235 303 20 29 359 106 120 135 149 133 155 165 168
352 345 339 335 332 327 323 319 315 311 307 303 311 327 14 271 278 314 289 286 258 239 262 211 241 219 274 98 85 158 162 201 253 22 354 12 308 98 135 136 143 143 157 167 178
355 349 342 337 331 325 319 315 312 308 300 297 307 332 271 237 252 290 297 288 283 271 253 274 257 91 149 93 137 138 113 216 53 2 308 281 35 115 145 148 151 159 170 190 207
1 355 347 337 327 321 316 316 314 308 297 297 308 334 251 271 295 283 272 287 296 280 263 280 289 49 113 137 138 92 70 44 295 153 300 74 64 59 92 155 165 172 182 190 204
360 355 351 339 328 320 319 319 312 307 303 298 327 125 268 297 269 252 250 257 294 299 285 294 311 126 72 123 75 44 134 272 75 116 217 63 215 200 37 194 173 181 190 191 201
356 353 350 342 331 322 322 320 296 295 298 298 267 356 269 271 249 229 246 246 246 331 337 331 38 63 43 92 211 185 203 236 184 157 198 116 216 247 118 124 76 224 190 195 201
351 350 345 344 333 323 329 340 17 19 173 206 200 232 288 299 324 245 250 212 75 43 280 301 62 254 219 193 150 147 163 195 135 203 103 95 332 264 336 258 185 162 236 199 204
346 345 341 342 329 316 314 220 227 137 297 231 235 248 262 306 308 300 177 155 126 215 249 2 247 238 193 149 130 117 118 278 89 154 94 13 295 286 283 271 195 167 203 218 204
344 342 339 337 323 316 279 251 312 316 306 277 199 211 230 152 226 262 141 169 164 219 248 176 246 12 169 150 120 151 159 220 172 147 68 101 326 289 279 287 333 180 222 212 205
340 340 337 338 330 327 267 332 331 174 24 275 201 245 192 164 289 228 179 157 140 207 241 242 269 213 176 166 134 129 230 245 144 135 198 126 261 273 257 295 295 277 265 204 212
335 336 333 336 300 278 301 324 347 117 352 240 192 180 156 157 271 326 179 92 201 226 114 243 283 234 177 210 156 198 236 247 89 114 102 257 68 266 109 258 266 255 258 306 52
332 332 325 322 290 272 323 334 13 48 258 268 159 160 115 203 252 332 127 106 202 223 258 238 316 224 218 167 182 178 241 31 353 133 119 211 200 285 162 255 33 89 87 202 83
328 324 311 284 239 207 343 29 54 163 307 227 178 148 160 184 247 169 259 243 178 156 287 315 290 263 255 100 126 95 81 36 12 29 200 209 144 247 281 174 146 294 67 117 89
327 322 297 262 256 269 328 58 203 266 251 285 357 116 180 172 238 207 163 234 243 117 114 201 306 196 222 177 188 180 154 148 174 198 248 278 206 265 242 254 55 6 299 94 87
330 320 285 276 219 211 77 106 213 224 297 359 330 121 252 218 176 168 195 206 224 171 172 172 262 311 280 241 146 202 140 167 106 356 86 188 346 311 325 92 74 32 45 140 163
326 318 264 173 163 136 79 234 236 234 341 42 318 60 241 274 172 159 192 206 227 200 160 218 268 246 282 341 248 166 158 71 7 135 200 292 258 202 242 207 153 99 292 204 211
323 344 314 170 140 58 173 240 280 285 326 360 304 269 189 204 194 216 211 241 204 212 170 153 131 272 112 201 225 134 157 60 115 133 160 161 243 207 222 221 228 153 180 224 180
344 354 161 146 71 197 209 219 280 300 300 290 258 230 236 271 284 212 215 202 194 169 167 197 167 227 234 256 236 208 199 153 133 206 157 158 251 194 210 225 248 155 106 240 172
338 263 186 271 162 267 303 290 266 274 277 295 307 311 348 275 343 226 280 243 209 153 169 178 201 284 313 338 5 227 153 153 97 92 180 147 249 220 227 256 248 29 144 140 132
343 341 318 20 169 116 12 293 282 283 274 256 259 13 27 339 191 289 314 299 193 181 158 109 135 159 217 222 205 302 263 183 157 131 178 199 180 223 230 239 223 186 156 155 144
173 294 40 321 335 10 74 280 296 296 276 309 280 186 243 308 329 354 336 343 342 12 107 120 175 172 227 238 255 258 272 263 174 208 163 204 170 198 216 194 201 193 161 143 143
250 70 359 267 277 23 2 268 328 327 221 293 258 259 249 211 203 277 312 259 278 352 3 350 209 169 254 302 311 287 288 263 257 236 184 151 223 216 149 150 169 196 177 156 151
323 339 105 265 277 94 239 281 297 330 296 291 292 255 264 270 264 214 209 229 240 137 272 72 128 101 253 328 7 332 261 260 287 239 137 157 207 143 146 191 184 191 171 160 160